DW3349 Weather Reports


time (UTC)temp
C
wind
direction
speed
KPH
gust
KPH
rain 1hr
cm
rain 24hr
cm
rain mn
cm
humidity
%
barometer
mb
20260507102902 14 23 4.8 11.3 0.00 0.00 0.00 66 1016.2
20260507102402 13 23 6.4 16.1 0.00 0.00 0.00 67 1016.2
20260507101901 13 355 9.7 16.1 0.00 0.00 0.00 66 1016.2
20260507101402 13 0 6.4 11.3 0.00 0.00 0.00 65 1016.1
20260507100901 13 61 4.8 11.3 0.00 0.00 0.00 66 1016.1
20260507100403 13 0 3.2 14.5 0.00 0.00 0.00 67 1016.1
20260507095902 13 13 6.4 14.5 0.00 0.00 0.00 68 1016.1
20260507095402 13 3 9.7 17.7 0.00 0.00 0.00 68 1016.1
20260507094901 13 6 6.4 17.7 0.00 0.00 0.00 68 1016.1
20260507094631 13 348 4.8 17.7 0.00 0.00 0.00 71 1016.0
20260507094142 13 21 4.8 14.5 0.00 0.00 0.00 70 1015.9
20260507093400 13 47 6.4 16.1 0.00 0.00 0.00 72 1015.9
20260507093135 12 25 6.4 17.7 0.00 0.00 0.00 72 1015.9
20260507093129 12 20 8.0 17.7 0.00 0.00 0.00 73 1015.9
20260507091900 12 358 4.8 14.5 0.00 0.00 0.00 76 1015.8
20260507091400 11 0 8.0 14.5 0.00 0.00 0.00 79 1015.8
20260507090900 11 1 4.8 14.5 0.00 0.00 0.00 79 1015.8
20260507090400 11 0 8.0 14.5 0.00 0.00 0.00 79 1015.8
20260507085900 11 3 6.4 14.5 0.00 0.00 0.00 80 1015.7
20260507085400 11 351 9.7 14.5 0.00 0.00 0.00 81 1015.6
20260507084901 11 14 3.2 14.5 0.00 0.00 0.00 81 1015.7
20260507084400 10 23 4.8 16.1 0.00 0.00 0.00 83 1015.7
20260507083858 10 21 11.3 17.7 0.00 0.00 0.00 84 1015.7
20260507083400 10 347 3.2 17.7 0.00 0.00 0.00 85 1015.6
20260507082857 10 0 4.8 9.7 0.00 0.00 0.00 85 1015.6
20260507082358 10 27 4.8 9.7 0.00 0.00 0.00 86 1015.6
20260507081857 9 30 6.4 11.3 0.00 0.00 0.00 87 1015.6
20260507081356 9 49 3.2 11.3 0.00 0.00 0.00 88 1015.7
20260507081133 9 56 0.0 9.7 0.00 0.00 0.00 89 1015.6
20260507080357 8 61 6.4 11.3 0.00 0.00 0.00 89 1015.6
20260507075857 8 44 3.2 11.3 0.00 0.00 0.00 89 1015.6
20260507075350 8 65 4.8 9.7 0.00 0.00 0.00 90 1015.5
20260507075122 8 69 3.2 9.7 0.00 0.00 0.00 91 1015.5
20260507074619 8 69 4.8 9.7 0.00 0.00 0.00 91 1015.6
20260507073851 8 72 1.6 9.7 0.00 0.00 0.00 91 1015.5
20260507073350 8 68 3.2 9.7 0.00 0.00 0.00 91 1015.4
20260507072850 8 73 3.2 11.3 0.00 0.00 0.00 92 1015.5
20260507072614 8 71 6.4 14.5 0.00 0.00 0.00 92 1015.4
20260507071850 8 38 6.4 14.5 0.00 0.00 0.00 92 1015.4
20260507071615 8 25 4.8 8.0 0.00 0.00 0.00 92 1015.4
20260507070844 7 16 3.2 9.7 0.00 0.00 0.00 92 1015.5
20260507070345 7 14 3.2 9.7 0.00 0.00 0.00 92 1015.4
20260507070121 7 14 4.8 9.7 0.00 0.00 0.00 92 1015.4
20260507065343 7 37 4.8 9.7 0.00 0.00 0.00 92 1015.3
20260507064844 7 23 6.4 9.7 0.00 0.00 0.00 92 1015.4
20260507064344 7 59 3.2 8.0 0.00 0.00 0.00 92 1015.4
20260507063850 7 61 3.2 8.0 0.00 0.00 0.00 92 1015.4
20260507063341 7 58 4.8 8.0 0.00 0.00 0.00 91 1015.4
20260507062841 6 47 3.2 9.7 0.00 0.00 0.00 92 1015.3
20260507062341 6 47 1.6 9.7 0.00 0.00 0.00 91 1015.4
20260507061841 6 56 3.2 9.7 0.00 0.00 0.00 91 1015.4
20260507061340 6 62 3.2 8.0 0.00 0.00 0.00 91 1015.3
20260507060837 6 58 1.6 6.4 0.00 0.00 0.00 91 1015.3
20260507060337 6 52 3.2 6.4 0.00 0.00 0.00 91 1015.3
20260507060125 5 56 1.6 6.4 0.00 0.00 0.00 90 1015.3
20260507060120 5 61 1.6 6.4 0.00 0.00 0.00 90 1015.2
20260507054838 5 56 1.6 6.4 0.00 0.00 0.00 90 1015.2
20260507054337 5 52 1.6 4.8 0.00 0.00 0.00 90 1015.2
20260507053837 5 54 0.0 4.8 0.00 0.00 0.00 90 1015.1
20260507053337 5 52 1.6 4.8 0.00 0.00 0.00 90 1015.1
20260507052835 5 52 0.0 4.8 0.00 0.00 0.00 89 1015.1
20260507052336 5 52 1.6 4.8 0.00 0.00 0.00 89 1015.0
20260507051837 5 52 0.0 4.8 0.00 0.00 0.00 89 1015.0
20260507051342 5 52 0.0 4.8 0.00 0.00 0.00 89 1014.9
20260507051335 5 52 0.0 4.8 0.00 0.00 0.00 89 1015.0
20260507050333 5 52 1.6 3.2 0.00 0.00 0.00 89 1014.9
20260507045835 5 52 1.6 3.2 0.00 0.00 0.00 89 1014.7
20260507045335 5 51 1.6 3.2 0.00 0.00 0.00 89 1014.7
20260507044832 5 52 1.6 3.2 0.00 0.00 0.00 89 1014.6
20260507044332 5 52 0.0 1.6 0.00 0.00 0.00 89 1014.5
20260507043831 5 52 0.0 1.6 0.00 0.00 0.00 89 1014.6
20260507043334 5 51 0.0 3.2 0.00 0.00 0.00 89 1014.5
20260507042831 5 52 0.0 3.2 0.00 0.00 0.00 89 1014.5
20260507042331 5 52 0.0 3.2 0.00 0.00 0.00 89 1014.5
20260507041831 5 52 1.6 3.2 0.00 0.00 0.00 89 1014.4
20260507041333 5 52 0.0 3.2 0.00 0.00 0.00 89 1014.4
20260507040831 5 51 0.0 3.2 0.00 0.00 0.00 89 1014.3
20260507040333 5 52 0.0 3.2 0.00 0.00 0.00 89 1014.3
20260507040119 5 52 0.0 3.2 0.00 0.00 0.00 89 1014.3
20260507035332 5 52 1.6 3.2 0.00 0.00 0.00 89 1014.2
20260507034832 5 52 1.6 3.2 0.00 0.00 0.00 89 1014.2
20260507034332 5 52 0.0 4.8 0.00 0.00 0.00 88 1014.2
20260507033831 5 52 0.0 4.8 0.00 0.00 0.00 88 1014.2
20260507033331 5 52 1.6 3.2 0.00 0.00 0.00 88 1014.2
20260507032833 5 52 1.6 6.4 0.00 0.00 0.00 88 1014.1
20260507032333 5 52 3.2 6.4 0.00 0.00 0.00 88 1014.2
20260507031831 5 52 3.2 4.8 0.00 0.00 0.00 88 1014.1
20260507031333 5 52 1.6 3.2 0.00 0.00 0.00 88 1014.1
20260507030832 6 52 1.6 4.8 0.00 0.00 0.00 88 1014.1
20260507030332 6 52 1.6 4.8 0.00 0.00 0.00 88 1014.0
20260507025832 6 52 0.0 4.8 0.00 0.00 0.00 88 1014.0
20260507025333 6 52 0.0 3.2 0.00 0.00 0.00 88 1014.0
20260507025105 6 52 0.0 3.2 0.00 0.00 0.00 88 1014.1
20260507024331 6 52 0.0 3.2 0.00 0.00 0.00 88 1013.9
20260507024107 6 52 0.0 3.2 0.00 0.00 0.00 88 1013.9
20260507023331 6 54 0.0 3.2 0.00 0.00 0.00 88 1013.9
20260507022832 6 52 1.6 4.8 0.00 0.00 0.00 88 1013.9
20260507022333 6 52 1.6 4.8 0.00 0.00 0.00 87 1013.9
20260507021833 6 52 1.6 4.8 0.00 0.00 0.00 87 1013.8
20260507021333 6 52 1.6 6.4 0.00 0.00 0.00 87 1013.8
20260507020831 6 51 1.6 6.4 0.00 0.00 0.00 87 1013.7
20260507020331 6 51 1.6 6.4 0.00 0.00 0.00 87 1013.7
20260507015832 6 48 1.6 8.0 0.00 0.00 0.00 87 1013.6
20260507015331 6 55 1.6 8.0 0.00 0.00 0.00 87 1013.6
20260507014831 6 51 3.2 8.0 0.00 0.00 0.00 87 1013.6
20260507014331 6 47 3.2 9.7 0.00 0.00 0.00 87 1013.6
20260507014100 6 48 3.2 9.7 0.00 0.00 0.00 87 1013.6
20260507013331 7 44 3.2 8.0 0.00 0.00 0.00 87 1013.6
20260507012832 7 42 3.2 6.4 0.00 0.00 0.00 87 1013.6
20260507012333 7 42 3.2 6.4 0.00 0.00 0.00 87 1013.6
20260507011832 7 42 1.6 6.4 0.00 0.00 0.00 86 1013.5
20260507011334 7 45 1.6 6.4 0.00 0.00 0.00 86 1013.5
20260507010831 7 45 3.2 9.7 0.00 0.00 0.00 86 1013.5
20260507010606 7 44 3.2 9.7 0.00 0.00 0.00 86 1013.5
20260507005831 7 41 3.2 6.4 0.00 0.00 0.00 86 1013.6
20260507005332 7 44 3.2 6.4 0.00 0.00 0.00 86 1013.5
20260507004833 7 45 1.6 8.0 0.00 0.00 0.00 86 1013.4
20260507004332 7 47 1.6 8.0 0.00 0.00 0.00 86 1013.5
20260507003832 8 47 3.2 4.8 0.00 0.00 0.00 86 1013.5
20260507003334 8 47 1.6 6.4 0.00 0.00 0.00 85 1013.5
20260507003104 8 47 1.6 6.4 0.00 0.00 0.00 85 1013.5
20260507002332 8 51 3.2 8.0 0.00 0.00 0.00 84 1013.5
20260507001833 8 52 0.0 8.0 0.00 0.00 0.00 84 1013.4
20260507001606 8 48 3.2 9.7 0.00 0.00 0.00 83 1013.3
20260507000832 8 47 3.2 9.7 0.00 0.00 0.00 82 1013.3
20260507000332 8 45 3.2 8.0 0.00 0.00 0.00 81 1013.3
20260506235834 8 34 3.2 8.0 0.00 0.00 0.00 81 1013.4
20260506235331 8 3 3.2 14.5 0.00 0.00 0.00 80 1013.3
20260506235106 8 0 4.8 14.5 0.00 0.00 0.00 80 1013.3
20260506234331 8 0 3.2 6.4 0.00 0.00 0.00 80 1013.3
20260506233830 8 45 3.2 8.0 0.00 0.00 0.00 80 1013.3
20260506233331 8 32 3.2 8.0 0.00 0.00 0.00 80 1013.3
20260506232831 8 28 4.8 8.0 0.00 0.00 0.00 79 1013.2
20260506232331 8 58 4.8 8.0 0.00 0.00 0.00 79 1013.2
20260506231831 8 51 1.6 8.0 0.00 0.00 0.00 79 1013.2
20260506231331 8 38 1.6 6.4 0.00 0.00 0.00 79 1013.2
20260506230833 8 42 3.2 6.4 0.00 0.00 0.00 78 1013.1
20260506230332 8 35 3.2 6.4 0.00 0.00 0.00 78 1013.1
20260506230114 8 48 3.2 6.4 0.00 0.00 0.00 78 1013.1
20260506225331 9 38 3.2 16.1 0.00 0.00 0.00 78 1013.1
20260506224832 9 63 4.8 16.1 0.00 0.00 0.00 78 1013.1
20260506224332 9 54 4.8 11.3 0.00 0.00 0.00 77 1013.2
20260506223831 9 59 6.4 11.3 0.00 0.00 0.00 77 1013.1
20260506223332 9 37 3.2 14.5 0.00 0.00 0.00 77 1012.9
20260506222832 9 55 4.8 14.5 0.00 0.00 0.00 77 1013.0
20260506222332 9 61 3.2 14.5 0.00 0.00 0.00 77 1013.0
20260506221832 9 62 6.4 14.5 0.00 0.00 0.00 76 1012.9
20260506221332 9 44 4.8 14.5 0.00 0.00 0.00 76 1012.9
20260506220832 9 56 4.8 11.3 0.00 0.00 0.00 76 1012.8
20260506220332 9 45 4.8 14.5 0.00 0.00 0.00 75 1012.8
20260506215831 10 61 4.8 14.5 0.00 0.00 0.00 75 1012.8
20260506215335 10 87 4.8 14.5 0.00 0.00 0.00 74 1012.8
20260506214834 10 41 4.8 14.5 0.00 0.00 0.00 74 1012.7
20260506214331 10 51 3.2 6.4 0.00 0.00 0.00 74 1012.7
20260506213831 10 20 1.6 9.7 0.00 0.00 0.00 74 1012.7
20260506213332 10 58 3.2 9.7 0.00 0.00 0.00 74 1012.7
20260506213103 10 44 4.8 9.7 0.00 0.00 0.00 73 1012.6
20260506212602 10 30 3.2 9.7 0.00 0.00 0.00 73 1012.6
20260506211831 10 27 3.2 11.3 0.00 0.00 0.00 73 1012.6
20260506211613 10 99 3.2 11.3 0.00 0.00 0.00 72 1012.5
20260506210831 10 78 6.4 14.5 0.00 0.00 0.00 72 1012.4
20260506210331 10 90 4.8 14.5 0.00 0.00 0.00 71 1012.4
20260506205831 10 83 3.2 14.5 0.00 0.00 0.00 71 1012.4
20260506205331 11 71 6.4 14.5 0.00 0.00 0.00 71 1012.4
20260506204827 11 104 6.4 14.5 0.00 0.00 0.00 70 1012.4
20260506204326 11 34 4.8 8.0 0.00 0.00 0.00 70 1012.4
20260506203827 11 51 4.8 8.0 0.00 0.00 0.00 70 1012.3
20260506203327 11 55 3.2 9.7 0.00 0.00 0.00 69 1012.2
20260506202829 11 35 1.6 11.3 0.00 0.00 0.00 69 1012.3
20260506202325 11 54 4.8 11.3 0.00 0.00 0.00 69 1012.2
20260506201824 11 75 3.2 9.7 0.00 0.00 0.00 69 1012.1
20260506201323 11 58 3.2 8.0 0.00 0.00 0.00 69 1012.1
20260506200825 11 90 4.8 11.3 0.00 0.00 0.00 69 1012.0
20260506200322 12 44 4.8 11.3 0.00 0.00 0.00 69 1011.9
20260506195822 12 86 4.8 19.3 0.00 0.00 0.00 69 1011.8
20260506195322 12 23 6.4 19.3 0.00 0.00 0.00 69 1011.9
20260506194821 12 106 4.8 16.1 0.00 0.00 0.00 69 1011.8
20260506194320 12 76 6.4 16.1 0.00 0.00 0.00 69 1011.7
20260506193820 12 18 4.8 16.1 0.00 0.00 0.00 70 1011.7
20260506193319 12 48 4.8 14.5 0.00 0.00 0.00 70 1011.7
20260506192823 12 90 4.8 9.7 0.00 0.00 0.00 70 1011.6
20260506192319 12 68 4.8 11.3 0.00 0.00 0.00 70 1011.5
20260506191817 12 59 6.4 17.7 0.00 0.00 0.00 71 1011.4
20260506191551 12 59 9.7 17.7 0.00 0.00 0.00 71 1011.3
20260506190817 12 58 4.8 17.7 0.00 0.00 0.00 71 1011.3
20260506190316 12 96 4.8 17.7 0.00 0.00 0.00 72 1011.3
20260506185813 12 35 4.8 14.5 0.00 0.00 0.00 71 1011.3
20260506185313 12 68 3.2 14.5 0.00 0.00 0.00 71 1011.1
20260506184812 12 62 6.4 17.7 0.00 0.00 0.00 71 1011.0
20260506184313 12 354 6.4 17.7 0.00 0.00 0.00 71 1011.0
20260506183813 12 106 4.8 11.3 0.00 0.00 0.00 71 1010.9
20260506183316 12 45 4.8 9.7 0.00 0.00 0.00 71 1010.9
20260506183312 12 52 3.2 16.1 0.00 0.00 0.00 72 1010.8
20260506182313 12 34 8.0 16.1 0.00 0.00 0.00 73 1010.7
20260506181812 12 37 8.0 16.1 0.00 0.00 0.00 74 1010.7
20260506181311 12 49 3.2 8.0 0.00 0.00 0.00 75 1010.6
20260506180811 12 44 3.2 6.4 0.00 0.00 0.00 75 1010.6
20260506180314 12 44 3.2 9.7 0.00 0.00 0.00 75 1010.5
20260506175812 12 55 3.2 11.3 0.00 0.00 0.00 75 1010.5
20260506175312 12 48 3.2 20.9 0.00 0.00 0.00 75 1010.4
20260506174810 12 41 6.4 20.9 0.00 0.00 0.00 75 1010.3
20260506174312 12 30 4.8 22.5 0.00 0.00 0.00 75 1010.3
20260506173810 12 51 9.7 22.5 0.00 0.00 0.00 75 1010.2
20260506173309 12 44 9.7 20.9 0.00 0.00 0.00 75 1010.1
20260506172808 12 80 11.3 20.9 0.00 0.00 0.00 75 1010.2
20260506172309 12 31 6.4 16.1 0.00 0.00 0.00 76 1010.1
20260506171811 12 0 6.4 16.1 0.00 0.00 0.00 76 1010.1
20260506171542 12 17 8.0 16.1 0.00 0.00 0.00 76 1010.0
20260506170803 12 51 8.0 19.3 0.00 0.00 0.00 76 1010.0
20260506170304 12 0 8.0 22.5 0.00 0.00 0.00 75 1010.0
20260506165803 12 329 8.0 22.5 0.00 0.00 0.00 75 1010.0
20260506165305 12 39 8.0 20.9 0.00 0.00 0.00 75 1010.0
20260506164803 12 347 9.7 19.3 0.00 0.00 0.00 75 1009.9
20260506164300 12 55 6.4 27.4 0.00 0.00 0.00 75 1010.0
20260506163759 12 49 11.3 27.4 0.00 0.00 0.00 75 1010.0
20260506163301 12 25 9.7 20.9 0.00 0.00 0.00 75 1009.9
20260506162758 12 54 6.4 20.9 0.00 0.00 0.00 75 1009.8
20260506162259 12 326 8.0 19.3 0.00 0.00 0.00 75 1009.9
20260506161758 12 52 8.0 25.7 0.00 0.00 0.00 75 1009.9
20260506161259 12 41 6.4 25.7 0.00 0.00 0.00 74 1009.9
20260506160758 12 32 11.3 29.0 0.00 0.00 0.00 74 1009.8
20260506160259 12 23 11.3 29.0 0.00 0.00 0.00 74 1009.9
20260506160045 12 16 11.3 30.6 0.00 0.00 0.00 74 1009.9
20260506155259 12 300 12.9 30.6 0.00 0.00 0.00 73 1009.8
20260506154756 13 344 14.5 24.1 0.00 0.00 0.00 73 1009.8
20260506154255 13 0 8.0 24.1 0.00 0.00 0.00 73 1009.9
20260506153753 13 20 11.3 24.1 0.00 0.00 0.00 73 1009.8
20260506153252 13 4 11.3 27.4 0.00 0.00 0.00 73 1009.9
20260506152755 13 0 14.5 37.0 0.00 0.00 0.00 72 1009.8
20260506152252 13 4 14.5 37.0 0.00 0.00 0.00 72 1009.8
20260506151759 13 141 12.9 35.4 0.00 0.00 0.00 71 1009.7
20260506151755 13 17 14.5 35.4 0.00 0.00 0.00 71 1009.8
20260506150753 13 30 14.5 33.8 0.00 0.00 0.00 72 1009.6
20260506150524 13 23 17.7 33.8 0.00 0.00 0.00 71 1009.7
20260506145753 13 62 11.3 30.6 0.00 0.00 0.00 71 1009.8
20260506145252 13 331 14.5 33.8 0.00 0.00 0.00 71 1009.7
20260506144751 13 3 19.3 33.8 0.00 0.00 0.00 71 1009.7
20260506144252 13 45 12.9 35.4 0.00 0.00 0.00 71 1009.5
20260506143750 13 286 16.1 35.4 0.00 0.00 0.00 71 1009.7
20260506143248 13 323 16.1 32.2 0.00 0.00 0.00 71 1009.6
20260506143018 13 27 12.9 27.4 0.00 0.00 0.00 71 1009.7
20260506142248 13 55 9.7 29.0 0.00 0.00 0.00 71 1009.6
20260506141746 13 51 11.3 29.0 0.00 0.00 0.00 72 1009.7
20260506141247 13 338 12.9 29.0 0.00 0.00 0.00 72 1009.6
20260506141016 13 0 12.9 24.1 0.00 0.00 0.00 73 1009.7
20260506140245 13 135 8.0 25.7 0.00 0.00 0.00 73 1009.6
20260506135745 14 35 14.5 29.0 0.00 0.00 0.00 73 1009.6
20260506135243 14 0 9.7 30.6 0.00 0.00 0.00 73 1009.6
20260506134743 14 0 17.7 30.6 0.00 0.00 0.00 73 1009.6
20260506134241 14 10 9.7 29.0 0.00 0.00 0.00 73 1009.7
20260506133743 14 1 12.9 35.4 0.00 0.00 0.00 72 1009.6
20260506133243 14 330 14.5 35.4 0.00 0.00 0.00 73 1009.6
20260506132742 14 48 14.5 27.4 0.00 0.00 0.00 74 1009.5
20260506132239 14 18 14.5 32.2 0.00 0.00 0.00 75 1009.5
20260506131739 14 0 14.5 32.2 0.00 0.00 0.00 74 1009.5
20260506131238 13 4 9.7 29.0 0.00 0.00 0.00 76 1009.5
20260506131005 13 28 11.3 29.0 0.00 0.00 0.00 77 1009.6
20260506130240 13 30 4.8 22.5 0.00 0.00 0.00 77 1009.5
20260506125739 13 18 9.7 22.5 0.00 0.00 0.00 77 1009.5
20260506125242 13 34 12.9 29.0 0.00 0.00 0.00 76 1009.5
20260506124746 13 56 8.0 27.4 0.00 0.00 0.00 76 1009.5
20260506124741 13 337 14.5 29.0 0.00 0.00 0.00 76 1009.5
20260506123737 13 334 12.9 33.8 0.00 0.00 0.00 75 1009.5
20260506123238 13 44 14.5 33.8 0.00 0.00 0.00 74 1009.4
20260506122739 13 24 14.5 35.4 0.00 0.00 0.00 74 1009.4
20260506122238 13 20 12.9 35.4 0.00 0.00 0.00 74 1009.4
20260506121739 13 13 9.7 30.6 0.00 0.00 0.00 75 1009.3
20260506121240 13 23 12.9 30.6 0.00 0.00 0.00 74 1009.3
20260506120736 13 0 11.3 24.1 0.00 0.00 0.00 75 1009.3
20260506120237 13 0 14.5 25.7 0.00 0.00 0.00 75 1009.3
20260506115739 13 357 8.0 25.7 0.00 0.00 0.00 75 1009.2
20260506115237 13 34 14.5 27.4 0.00 0.00 0.00 74 1009.1
20260506114738 13 21 9.7 27.4 0.00 0.00 0.00 74 1009.2
20260506114235 13 0 12.9 27.4 0.00 0.00 0.00 74 1009.3
20260506113736 13 18 9.7 25.7 0.00 0.00 0.00 74 1009.3
20260506113235 13 35 9.7 22.5 0.00 0.00 0.00 74 1009.3
20260506112800 13 0 14.5 25.7 0.00 0.00 0.00 75 1009.3
20260506112751 13 27 6.4 25.7 0.00 0.00 0.00 74 1009.2
20260506111737 13 94 11.3 24.1 0.00 0.00 0.00 75 1009.2
20260506111235 13 0 11.3 24.1 0.00 0.00 0.00 75 1009.3
20260506110745 13 47 8.0 24.1 0.00 0.00 0.00 75 1009.3
20260506110738 13 54 11.3 24.1 0.00 0.00 0.00 76 1009.3
20260506105733 13 344 16.1 29.0 0.00 0.00 0.00 76 1009.3
20260506105234 13 8 12.9 29.0 0.00 0.00 0.00 76 1009.3
20260506104734 13 17 11.3 22.5 0.00 0.00 0.00 76 1009.2
20260506104234 13 353 9.7 25.7 0.00 0.00 0.00 76 1009.3
20260506103735 13 55 11.3 27.4 0.00 0.00 0.00 75 1009.3